Weather History for PAKP - October, 2012

Change the Weather History Date:

Tuesday, October 23, 2012

  Actual Average Record
Temperature  
Mean Temperature 11 °F -  
Max Temperature 24 °F 8 °F 32 °F (2002)
Min Temperature -2 °F 0 °F -18 °F (1996)
Degree Days  
Heating Degree Days 54    
Moisture  
Dew Point 11 °F    
Average Humidity 75    
Maximum Humidity 86    
Minimum Humidity 53    
Precipitation  
Precipitation 0.00 in - - ()
Sea Level Pressure  
Sea Level Pressure 30.49 in    
Wind  
Wind Speed 4 mph (NNE)    
Max Wind Speed 8 mph    
Max Gust Speed -    
Visibility 10 miles    
Events      
Averages and records for this station are not official NWS values.
T = Trace of Precipitation, MM = Missing Value Source: NWS Daily Summary

Daily Weather History Graph

Daily Weather History Graph

Search for Another Location

Airport or City:

Trip Planner

Search our weather history database for the weather conditions in past years. The results will help you decide how hot, cold, wet, or windy it might be!

Date:

Astronomy

Oct. 23, 2012 Rise Set
Actual Time 9:45 AM AKDT 5:55 PM AKDT
Civil Twilight 8:44 AM AKDT 6:56 PM AKDT
Nautical Twilight 7:38 AM AKDT 8:01 PM AKDT
Astronomical Twilight 6:33 AM AKDT 9:06 PM AKDT
Moon 5:04 PM AKDT (10/23) 1:05 AM AKDT (10/23)
Length of Visible Light 10h 12m
Length of Day
8h 10m
Waxing Gibbous, 68% of the Moon is Illuminated
Oct 23
Waxing Gibbous
Oct 29
Full
Nov 6
Last Quarter
Nov 13
New
Nov 20
First Quarter

Hourly Weather History & Observations

Time (AKDT) Temp. Windchill Dew Point Humidity Pressure Visibility Wind Dir Wind Speed Gust Speed Precip Events Conditions
12:16 AM -2.2 °F - -11.2 °F 66% 30.38 in 10.0 mi Calm Calm - N/A   Clear
12:36 AM -2.2 °F - -7.6 °F 78% 30.39 in 10.0 mi Calm Calm - N/A   Clear
12:56 AM -0.4 °F - -7.6 °F 72% 30.39 in 10.0 mi Calm Calm - N/A   Partly Cloudy
1:16 AM -2.2 °F - -9.4 °F 71% 30.39 in 10.0 mi Calm Calm - N/A   Partly Cloudy
1:36 AM -2.2 °F - -9.4 °F 71% 30.39 in 10.0 mi Calm Calm - N/A   Scattered Clouds
1:56 AM -0.4 °F - -5.8 °F 78% 30.39 in 10.0 mi Calm Calm - N/A   Mostly Cloudy
2:16 AM 1.4 °F - -5.8 °F 72% 30.39 in 10.0 mi Calm Calm - N/A   Overcast
2:36 AM 3.2 °F - -2.2 °F 78% 30.39 in 10.0 mi Calm Calm - N/A   Overcast
2:56 AM 5.0 °F - -2.2 °F 72% 30.40 in 10.0 mi Calm Calm - N/A   Overcast
3:16 AM 15.8 °F 5.1 °F 8.6 °F 73% 30.40 in 10.0 mi North 8.1 mph - N/A   Overcast
3:36 AM 17.6 °F 7.3 °F 3.2 °F 53% 30.40 in 10.0 mi North 8.1 mph - N/A   Overcast
3:56 AM 14.0 °F 2.9 °F 1.4 °F 57% 30.41 in 10.0 mi NNE 8.1 mph - N/A   Overcast
4:16 AM 15.8 °F 5.1 °F 3.2 °F 58% 30.41 in 10.0 mi NNE 8.1 mph - N/A   Overcast
4:36 AM 12.2 °F 1.7 °F 1.4 °F 62% 30.42 in 10.0 mi North 6.9 mph - N/A   Overcast
4:56 AM 15.8 °F 6.1 °F 3.2 °F 58% 30.42 in 10.0 mi NE 6.9 mph - N/A   Overcast
5:16 AM 14.0 °F 5.1 °F 1.4 °F 57% 30.43 in 10.0 mi NE 5.8 mph - N/A   Overcast
5:36 AM 14.0 °F 5.1 °F 5.0 °F 67% 30.43 in 10.0 mi NNE 5.8 mph - N/A   Overcast
5:56 AM 15.8 °F 10.2 °F 5.0 °F 62% 30.43 in 10.0 mi North 3.5 mph - N/A   Overcast
6:16 AM 17.6 °F 9.3 °F 6.8 °F 63% 30.43 in 10.0 mi NNE 5.8 mph - N/A   Overcast
6:36 AM 17.6 °F 7.3 °F 6.8 °F 63% 30.43 in 10.0 mi NNE 8.1 mph - N/A   Overcast
6:56 AM 17.6 °F 7.3 °F 6.8 °F 63% 30.44 in 10.0 mi NNE 8.1 mph - N/A   Overcast
7:16 AM 17.6 °F 7.3 °F 8.6 °F 68% 30.44 in 10.0 mi NNE 8.1 mph - N/A   Overcast
7:36 AM 19.4 °F 10.4 °F 8.6 °F 63% 30.44 in 10.0 mi NNE 6.9 mph - N/A   Overcast
7:56 AM 19.4 °F 10.4 °F 12.2 °F 74% 30.45 in 10.0 mi NNE 6.9 mph - N/A   Overcast
8:16 AM 19.4 °F 9.5 °F 12.2 °F 74% 30.45 in 10.0 mi NNE 8.1 mph - N/A   Overcast
8:36 AM 19.4 °F 9.5 °F 12.2 °F 74% 30.45 in 10.0 mi NE 8.1 mph - N/A   Overcast
8:56 AM 19.4 °F 11.5 °F 12.2 °F 74% 30.46 in 9.0 mi NNE 5.8 mph - N/A   Overcast
9:16 AM 21.2 °F 12.6 °F 15.8 °F 80% 30.47 in 6.0 mi NNE 6.9 mph - N/A   Overcast
9:36 AM 21.2 °F 11.7 °F 15.8 °F 80% 30.47 in 4.0 mi NE 8.1 mph - N/A   Overcast
9:56 AM 21.2 °F 11.7 °F 17.6 °F 86% 30.48 in 3.0 mi NNE 8.1 mph - N/A   Overcast
10:16 AM 21.2 °F 12.6 °F 17.6 °F 86% 30.48 in 5.0 mi NNE 6.9 mph - N/A   Overcast
10:36 AM 21.2 °F 12.6 °F 17.6 °F 86% 30.48 in 5.0 mi NNE 6.9 mph - N/A   Mostly Cloudy
10:56 AM 21.2 °F 13.6 °F 17.6 °F 86% 30.48 in 6.0 mi North 5.8 mph - N/A   Mostly Cloudy
11:16 AM 21.2 °F 14.9 °F 17.6 °F 86% 30.48 in 5.0 mi North 4.6 mph - N/A   Overcast
11:36 AM 23.0 °F 15.8 °F 17.6 °F 80% 30.48 in 10.0 mi NE 5.8 mph - N/A   Overcast
11:56 AM 23.0 °F 14.7 °F 17.6 °F 80% 30.49 in 10.0 mi NE 6.9 mph - N/A   Overcast
12:16 PM 23.0 °F 14.7 °F 17.6 °F 80% 30.50 in 10.0 mi NE 6.9 mph - N/A   Overcast
12:36 PM 24.8 °F 16.9 °F 17.6 °F 74% 30.50 in 10.0 mi NE 6.9 mph - N/A   Overcast
12:56 PM 24.8 °F 19.1 °F 17.6 °F 74% 30.51 in 10.0 mi NNE 4.6 mph - N/A   Overcast
1:16 PM 24.8 °F 17.9 °F 17.6 °F 74% 30.51 in 10.0 mi NNE 5.8 mph - N/A   Overcast
1:36 PM 24.8 °F 16.9 °F 19.4 °F 80% 30.52 in 10.0 mi NNE 6.9 mph - N/A   Overcast
1:56 PM 24.8 °F 16.9 °F 19.4 °F 80% 30.52 in 10.0 mi NNE 6.9 mph - N/A   Overcast
2:16 PM 24.8 °F 16.1 °F 19.4 °F 80% 30.52 in 10.0 mi NNE 8.1 mph - N/A   Overcast
2:36 PM 24.8 °F 16.1 °F 17.6 °F 74% 30.52 in 10.0 mi NNE 8.1 mph - N/A   Overcast
2:56 PM 24.8 °F 17.9 °F 19.4 °F 80% 30.52 in 10.0 mi NE 5.8 mph - N/A   Overcast
3:16 PM 24.8 °F 17.9 °F 19.4 °F 80% 30.52 in 10.0 mi NE 5.8 mph - N/A   Overcast
3:36 PM 24.8 °F 17.9 °F 17.6 °F 74% 30.52 in 10.0 mi NNE 5.8 mph - N/A   Overcast
3:56 PM 24.8 °F 16.9 °F 17.6 °F 74% 30.52 in 10.0 mi NNE 6.9 mph - N/A   Overcast
4:16 PM 21.2 °F 14.9 °F 15.8 °F 80% 30.53 in 10.0 mi NE 4.6 mph - N/A   Mostly Cloudy
4:36 PM 21.2 °F 16.4 °F 15.8 °F 80% 30.53 in 10.0 mi NNE 3.5 mph - N/A   Mostly Cloudy
4:56 PM 21.2 °F 16.4 °F 15.8 °F 80% 30.53 in 10.0 mi NE 3.5 mph - N/A   Overcast
5:16 PM 24.8 °F 19.1 °F 17.6 °F 74% 30.54 in 10.0 mi NE 4.6 mph - N/A   Overcast
5:36 PM 21.2 °F - 17.6 °F 86% 30.54 in 10.0 mi Calm Calm - N/A   Overcast
5:56 PM 21.2 °F 16.4 °F 15.8 °F 80% 30.54 in 10.0 mi North 3.5 mph - N/A   Overcast
6:16 PM 21.2 °F 16.4 °F 15.8 °F 80% 30.54 in 10.0 mi NNW 3.5 mph - N/A   Overcast
6:36 PM 21.2 °F 16.4 °F 15.8 °F 80% 30.54 in 10.0 mi North 3.5 mph - N/A   Overcast
6:56 PM 21.2 °F 14.9 °F 15.8 °F 80% 30.55 in 10.0 mi North 4.6 mph - N/A   Overcast
7:16 PM 21.2 °F 14.9 °F 15.8 °F 80% 30.56 in 10.0 mi North 4.6 mph - N/A   Overcast
7:36 PM 21.2 °F 14.9 °F 14.0 °F 74% 30.56 in 10.0 mi NNE 4.6 mph - N/A   Overcast
7:56 PM 21.2 °F 13.6 °F 15.8 °F 80% 30.57 in 10.0 mi North 5.8 mph - N/A   Overcast
8:16 PM 21.2 °F 14.9 °F 15.8 °F 80% 30.57 in 10.0 mi North 4.6 mph - N/A   Overcast
8:36 PM 21.2 °F 16.4 °F 15.8 °F 80% 30.57 in 10.0 mi North 3.5 mph - N/A   Overcast
8:56 PM 21.2 °F 14.9 °F 15.8 °F 80% 30.58 in 10.0 mi NNW 4.6 mph - N/A   Overcast
9:16 PM 21.2 °F - 15.8 °F 80% 30.58 in 10.0 mi Calm Calm - N/A   Overcast
9:36 PM 23.0 °F 15.8 °F 15.8 °F 74% 30.58 in 10.0 mi NNE 5.8 mph - N/A   Overcast
9:56 PM 21.2 °F 13.6 °F 15.8 °F 80% 30.58 in 10.0 mi North 5.8 mph - N/A   Overcast
10:16 PM 21.2 °F 16.4 °F 15.8 °F 80% 30.58 in 10.0 mi NNE 3.5 mph - N/A   Overcast
10:36 PM 21.2 °F 14.9 °F 15.8 °F 80% 30.59 in 10.0 mi North 4.6 mph - N/A   Overcast
10:56 PM 21.2 °F 13.6 °F 15.8 °F 80% 30.60 in 10.0 mi NNE 5.8 mph - N/A   Overcast
11:16 PM 23.0 °F 14.7 °F 17.6 °F 80% 30.60 in 10.0 mi ENE 6.9 mph - N/A   Overcast
11:36 PM 23.0 °F 14.7 °F 17.6 °F 80% 30.60 in 10.0 mi NNE 6.9 mph - N/A   Overcast
11:56 PM 21.2 °F 13.6 °F 15.8 °F 80% 30.60 in 10.0 mi North 5.8 mph - N/A   Overcast